This is the latest recevied weather packets stored in our database for station/object AB8Y-13. If no packets are shown the sender has not sent any weather packets the latest 10 day(s).
| Time | Temp. | Humidity | Pressure | Rain* | Wind** | Luminosity | Snow |
|---|---|---|---|---|---|---|---|
| 1777162819 | 7.22° C | 82% | 1018.7 hPa | 0 mm | - | 9 W/m² | - |
| 1777162514 | 7.22° C | 82% | 1018.6 hPa | 0 mm | - | 11 W/m² | - |
| 1777162214 | 7.22° C | 83% | 1018.6 hPa | 0 mm | - | 12 W/m² | - |
| 1777161909 | 7.22° C | 84% | 1018.4 hPa | 0 mm | - | 11 W/m² | - |
| 1777161604 | 7.22° C | 83% | 1018.6 hPa | 0 mm | - | 14 W/m² | - |
| 1777161301 | 7.22° C | 83% | 1018.1 hPa | 0 mm | - | 24 W/m² | - |
| 1777160997 | 7.22° C | 83% | 1018.1 hPa | 0 mm | - | 26 W/m² | - |
| 1777160693 | 7.22° C | 83% | 1018.3 hPa | 0 mm | - | 31 W/m² | - |
| 1777160388 | 7.22° C | 82% | 1018.1 hPa | 0 mm | - | 34 W/m² | - |
| 1777160085 | 7.22° C | 83% | 1018 hPa | 0 mm | - | 54 W/m² | - |
| 1777159781 | 7.22° C | 82% | 1018.1 hPa | 0 mm | - | 55 W/m² | - |
| 1777159477 | 7.22° C | 82% | 1018 hPa | 0 mm | - | 50 W/m² | - |
| 1777159174 | 7.78° C | 82% | 1018 hPa | 0 mm | - | 46 W/m² | - |
| 1777158871 | 7.78° C | 81% | 1018 hPa | 0 mm | - | 64 W/m² | - |
| 1777158569 | 8.33° C | 81% | 1018 hPa | 0 mm | - | 60 W/m² | - |
| 1777158265 | 8.33° C | 80% | 1018 hPa | 0 mm | - | 115 W/m² | - |
| 1777157961 | 8.89° C | 82% | 1017.7 hPa | 0 mm | - | 106 W/m² | - |
| 1777157657 | 8.33° C | 81% | 1017.7 hPa | 0 mm | - | 92 W/m² | - |
| 1777157354 | 8.89° C | 80% | 1017.4 hPa | 0 mm | - | 79 W/m² | - |
| 1777157053 | 8.89° C | 80% | 1017.4 hPa | 0 mm | - | 88 W/m² | - |
| 1777156748 | 8.89° C | 80% | 1017.7 hPa | 0 mm | - | 96 W/m² | - |
| 1777156445 | 8.89° C | 81% | 1017.5 hPa | 0 mm | - | 116 W/m² | - |
| 1777156141 | 9.44° C | 79% | 1017.4 hPa | 0 mm | - | 120 W/m² | - |
| 1777155838 | 9.44° C | 82% | 1017.5 hPa | 0 mm | - | 125 W/m² | - |
| 1777155532 | 9.44° C | 78% | 1017.3 hPa | 0 mm | - | 97 W/m² | - |
* Rain latest hour (hover to see other rain measurements)
** Current wind speed in m/s (hover to see current wind gust speed)